Weather History for Bellefontaine, OH

Change the Weather History Date:

Monday, July 8, 2013

  Actual Average (KDAY) Record (KDAY)
Temperature  
Mean Temperature 73 °F 74 °F  
Max Temperature 80 °F 84 °F 104 °F (1936)
Min Temperature 66 °F 65 °F 49 °F (1984)
Degree Days  
Heating Degree Days 0 0  
Month to date heating degree days 0  
Since 1 June heating degree days 22  
Since 1 July heating degree days 0  
Cooling Degree Days 8 9  
Month to date cooling degree days 72  
Year to date cooling degree days 332  
Since 1 June cooling degree days 262  
Growing Degree Days 23 (Base 50)    
Moisture  
Dew Point 70 °F    
Average Humidity 93    
Maximum Humidity 100    
Minimum Humidity 74    
Precipitation  
Precipitation 1.05 in 0.15 in 1.43 in (1946)
Month to date precipitation 1.13  
Year to date precipitation 22.34  
Snow  
Snow 0.00 in 0.00 in 0.00 in ()
Month to date snowfall 0.0  
Since 1 June snowfall 0.0  
Since 1 July snowfall 0.0  
Snow Depth -    
Sea Level Pressure  
Sea Level Pressure 30.08 in    
Wind  
Wind Speed 6 mph (South)    
Max Wind Speed 14 mph    
Max Gust Speed -    
Visibility 9 miles    
Events      
T = Trace of Precipitation, MM = Missing Value Source: NWS Daily Summary

Daily Weather History Graph

Daily Weather History Graph

Search for Another Location

Airport:

Trip Planner

Search our weather history database for the weather conditions in past years. The results will help you decide how hot, cold, wet, or windy it might be!

Date:

Astronomy

Jul. 08, 2013 Rise Set
Actual Time 6:13 AM EDT 9:07 PM EDT
Civil Twilight 5:40 AM EDT 9:39 PM EDT
Nautical Twilight 4:59 AM EDT 10:21 PM EDT
Astronomical Twilight 4:11 AM EDT 11:08 PM EDT
Moon 6:41 AM EDT (7/8) 9:08 PM EDT (7/8)
Length of Visible Light 15h 59m
Length of Day
14h 54m
New Moon, 0% of the Moon is Illuminated
Jul 8
New Moon
Jul 15
First Quarter
Jul 22
Full
Jul 29
Last Quarter
Aug 6
New

Hourly Weather History & Observations

Time (EDT) Temp. Heat Index Dew Point Humidity Pressure Visibility Wind Dir Wind Speed Gust Speed Precip Events Conditions
12:00 AM 66.2 °F - 66.2 °F 100% 30.08 in 9.0 mi SSE 4.6 mph - 0.00 in   Clear
12:20 AM 66.2 °F - 66.2 °F 100% 30.09 in 10.0 mi South 5.8 mph - 0.00 in   Clear
12:40 AM 66.2 °F - 66.2 °F 100% 30.08 in 10.0 mi South 6.9 mph - 0.00 in   Clear
1:00 AM 66.2 °F - 66.2 °F 100% 30.08 in 10.0 mi SSE 5.8 mph - 0.00 in   Clear
1:20 AM 66.2 °F - 66.2 °F 100% 30.08 in 10.0 mi SSE 5.8 mph - 0.00 in   Partly Cloudy
1:40 AM 66.2 °F - 66.2 °F 100% 30.08 in 10.0 mi SSE 4.6 mph - 0.00 in   Partly Cloudy
2:00 AM 66.2 °F - 66.2 °F 100% 30.09 in 10.0 mi SSE 3.5 mph - 0.00 in   Scattered Clouds
2:20 AM 66.2 °F - 66.2 °F 100% 30.08 in 10.0 mi South 3.5 mph - 0.00 in   Partly Cloudy
2:40 AM 66.2 °F - 66.2 °F 100% 30.08 in 10.0 mi South 3.5 mph - 0.00 in   Partly Cloudy
3:00 AM 66.2 °F - 66.2 °F 100% 30.08 in 9.0 mi SE 3.5 mph - 0.00 in   Partly Cloudy
3:20 AM 66.2 °F - 66.2 °F 100% 30.10 in 7.0 mi WSW 3.5 mph - 0.03 in   Partly Cloudy
3:40 AM 66.2 °F - 66.2 °F 100% 30.08 in 5.0 mi South 5.8 mph - 0.11 in   Scattered Clouds
4:00 AM 66.2 °F - 66.2 °F 100% 30.08 in 7.0 mi South 4.6 mph - 0.11 in   Clear
4:20 AM 66.2 °F - 66.2 °F 100% 30.09 in 7.0 mi South 5.8 mph - 0.00 in   Partly Cloudy
4:40 AM 66.2 °F - 66.2 °F 100% 30.09 in 7.0 mi South 5.8 mph - 0.00 in   Scattered Clouds
5:00 AM 66.2 °F - 66.2 °F 100% 30.09 in 7.0 mi South 6.9 mph - 0.00 in   Scattered Clouds
5:20 AM 66.2 °F - 66.2 °F 100% 30.09 in 9.0 mi South 8.1 mph - 0.00 in   Mostly Cloudy
5:40 AM 66.2 °F - 66.2 °F 100% 30.09 in 10.0 mi SSE 4.6 mph - 0.00 in   Mostly Cloudy
6:00 AM 66.2 °F - 66.2 °F 100% 30.09 in 9.0 mi SSE 4.6 mph - 0.00 in   Mostly Cloudy
6:20 AM 66.2 °F - 66.2 °F 100% 30.09 in 8.0 mi SSE 6.9 mph - 0.00 in   Mostly Cloudy
6:40 AM 66.2 °F - 66.2 °F 100% 30.09 in 8.0 mi South 6.9 mph - 0.00 in   Scattered Clouds
7:00 AM 66.2 °F - 66.2 °F 100% 30.10 in 8.0 mi South 5.8 mph - 0.00 in   Clear
7:20 AM 66.2 °F - 66.2 °F 100% 30.10 in 7.0 mi SSE 6.9 mph - 0.00 in   Clear
7:40 AM 68.0 °F - 68.0 °F 100% 30.10 in 9.0 mi SSE 6.9 mph - 0.00 in   Clear
8:00 AM 68.0 °F - 68.0 °F 100% 30.11 in 10.0 mi South 6.9 mph - 0.00 in   Clear
8:20 AM 68.0 °F - 68.0 °F 100% 30.11 in 10.0 mi SSE 6.9 mph - 0.00 in   Clear
8:40 AM 69.8 °F - 69.8 °F 100% 30.11 in 10.0 mi South 8.1 mph - 0.00 in   Scattered Clouds
9:00 AM 71.6 °F - 71.6 °F 100% 30.11 in 10.0 mi South 6.9 mph - 0.00 in   Mostly Cloudy
9:20 AM 71.6 °F - 71.6 °F 100% 30.12 in 10.0 mi SSW 6.9 mph - 0.00 in   Scattered Clouds
9:40 AM 73.4 °F - 73.4 °F 100% 30.12 in 2.5 mi South 5.8 mph - 0.01 in   Mostly Cloudy
10:00 AM 71.6 °F - 71.6 °F 100% 30.12 in 10.0 mi SSW 6.9 mph - 0.01 in   Mostly Cloudy
10:20 AM 73.4 °F - 71.6 °F 94% 30.11 in 10.0 mi South 5.8 mph - 0.00 in   Mostly Cloudy
10:40 AM 73.4 °F - 73.4 °F 100% 30.12 in 10.0 mi South 4.6 mph - 0.00 in   Scattered Clouds
11:00 AM 75.2 °F - 71.6 °F 89% 30.12 in 10.0 mi SSW 8.1 mph - 0.00 in   Clear
11:20 AM 77.0 °F - 71.6 °F 83% 30.12 in 10.0 mi South 9.2 mph - 0.00 in   Clear
11:40 AM 78.8 °F - 71.6 °F 78% 30.12 in 10.0 mi South 9.2 mph - 0.01 in   Clear
12:00 PM 78.8 °F - 71.6 °F 78% 30.12 in 10.0 mi SW 5.8 mph - 0.01 in   Partly Cloudy
12:20 PM 78.8 °F - 71.6 °F 78% 30.12 in 10.0 mi SW 11.5 mph - 0.00 in   Partly Cloudy
12:40 PM 78.8 °F - 71.6 °F 78% 30.12 in 10.0 mi SW 8.1 mph - 0.00 in   Partly Cloudy
1:00 PM 78.8 °F - 71.6 °F 78% 30.11 in 10.0 mi SSW 8.1 mph - 0.00 in   Clear
1:20 PM 78.8 °F - 73.4 °F 83% 30.11 in 10.0 mi SSW 11.5 mph - 0.00 in   Partly Cloudy
1:40 PM 80.6 °F 85.4 °F 73.4 °F 79% 30.10 in 10.0 mi South 9.2 mph - 0.00 in   Partly Cloudy
2:00 PM 80.6 °F 85.4 °F 73.4 °F 79% 30.09 in 10.0 mi SSW 8.1 mph - 0.00 in   Clear
2:20 PM 80.6 °F 84.6 °F 71.6 °F 74% 30.09 in 10.0 mi SSW 10.4 mph - 0.00 in   Scattered Clouds
2:40 PM 80.6 °F 84.6 °F 71.6 °F 74% 30.08 in 10.0 mi SW 9.2 mph - 0.00 in   Partly Cloudy
3:00 PM 80.6 °F 85.4 °F 73.4 °F 79% 30.08 in 10.0 mi SW 9.2 mph - 0.00 in   Partly Cloudy
3:20 PM 80.6 °F 85.4 °F 73.4 °F 79% 30.08 in 10.0 mi SSW 12.7 mph - 0.00 in   Clear
3:40 PM 80.6 °F 85.4 °F 73.4 °F 79% 30.08 in 10.0 mi SSW 10.4 mph - 0.00 in   Partly Cloudy
4:00 PM 78.8 °F - 73.4 °F 83% 30.07 in 8.0 mi SSW 9.2 mph - 0.00 in   Scattered Clouds
4:20 PM 78.8 °F - 75.2 °F 89% 30.07 in 10.0 mi SW 8.1 mph - 0.00 in   Scattered Clouds
4:40 PM 78.8 °F - 73.4 °F 83% 30.06 in 10.0 mi SW 6.9 mph - 0.00 in   Partly Cloudy
5:00 PM 78.8 °F - 73.4 °F 83% 30.05 in 10.0 mi SW 8.1 mph - 0.00 in   Partly Cloudy
5:20 PM 78.8 °F - 73.4 °F 83% 30.05 in 10.0 mi SW 8.1 mph - 0.00 in   Partly Cloudy
5:40 PM 77.0 °F - 73.4 °F 89% 30.04 in 7.0 mi SSW 3.5 mph - 0.00 in   Mostly Cloudy
6:00 PM 77.0 °F - 75.2 °F 94% 30.04 in 10.0 mi SSW 4.6 mph - 0.00 in   Scattered Clouds
6:20 PM 77.0 °F - 73.4 °F 89% 30.04 in 10.0 mi SSW 6.9 mph - 0.00 in   Scattered Clouds
6:40 PM 78.8 °F - 73.4 °F 83% 30.04 in 10.0 mi SSW 5.8 mph - 0.00 in   Partly Cloudy
7:00 PM 77.0 °F - 73.4 °F 89% 30.05 in 10.0 mi SSW 4.6 mph - 0.00 in   Scattered Clouds
7:20 PM 75.2 °F - 73.4 °F 94% 30.06 in 9.0 mi SSW 3.5 mph - 0.00 in   Scattered Clouds
7:40 PM 75.2 °F - 73.4 °F 94% 30.06 in 10.0 mi South 4.6 mph - 0.00 in   Mostly Cloudy
8:00 PM 75.2 °F - 73.4 °F 94% 30.07 in 9.0 mi SSW 3.5 mph - 0.00 in   Scattered Clouds
8:20 PM 75.2 °F - 75.2 °F 100% 30.08 in 5.0 mi WSW 3.5 mph - 0.02 in   Partly Cloudy
8:40 PM 73.4 °F - 73.4 °F 100% 30.07 in 2.0 mi SSW 6.9 mph - 0.06 in   Overcast
9:00 PM 71.6 °F - 71.6 °F 100% 30.05 in 5.0 mi South 9.2 mph - 0.10 in   Mostly Cloudy
9:20 PM 71.6 °F - 71.6 °F 100% 30.04 in 6.0 mi SSE 10.4 mph - 0.02 in   Overcast
9:40 PM 71.6 °F - 71.6 °F 100% 30.05 in 7.0 mi SSE 8.1 mph - 0.06 in   Mostly Cloudy
10:00 PM 71.6 °F - 71.6 °F 100% 30.05 in 10.0 mi SE 10.4 mph - 0.06 in   Scattered Clouds
10:20 PM 69.8 °F - 69.8 °F 100% 30.05 in 9.0 mi SSE 10.4 mph - 0.00 in   Scattered Clouds
10:35 PM 69.8 °F - 69.8 °F 100% 30.06 in 9.0 mi SSE 8.1 mph - 0.01 in   Scattered Clouds
11:00 PM 71.6 °F - 69.8 °F 94% 30.04 in 5.0 mi SSE 13.8 mph - 0.57 in   Mostly Cloudy
11:20 PM 71.6 °F - 71.6 °F 100% 30.04 in 7.0 mi South 11.5 mph - 0.07 in   Mostly Cloudy
11:40 PM 71.6 °F - 71.6 °F 100% 30.05 in 10.0 mi South 9.2 mph - 0.08 in   Mostly Cloudy